Location: ??
(35.5052°N, 139.7262°E)
Time: 09:00:16
(UTC+00:00)

FENGYUN 1C DEB - Pass Details

Date: 01 February 2022
Orbit: 690 x 958 km, 98.4° (Epoch: 24 May)

Event Time Altitude Azimuth Distance (km) Brightness Sun altitude
Rises 21:01:51 0° 22° (NNE) 3,645 ? -8.3°
Reaches altitude 10° 21:04:33 10° 30° (NNE) 2,689 ? -7.8°
Maximum altitude 21:10:07 38° 97° (E) 1,402 ? -6.7°
Drops below altitude 10° 21:15:29 10° 164° (SSE) 2,582 ? -5.7°
Sets 21:18:00 0° 172° (S) 3,484 ? -5.2°
